Location: La Bastide
(43.1661°N, 1.2755°E)
Time: 02:44:23
(UTC+00:00)

Cosmos 1953 Rocket - Visible Passes

Search period start: 17 March 2026 00:00
Search period end: 27 March 2026 00:00
Orbit: 597 x 627 km, 82.5° (Epoch: 16 March)

Date Brightness Start Highest point End Pass type
(mag) Time Alt. Az. Time Alt. Az. Time Alt. Az.
17 Mar 6.9 20:02:54 10° W 20:04:59 13° WNW 20:07:05 10° NW visible
18 Mar 6.8 04:30:17 10° NNE 04:33:07 17° ENE 04:35:57 10° ESE visible
18 Mar 3.7 18:37:46 10° S 18:42:03 80° W 18:46:23 10° N visible
19 Mar 5.9 04:44:46 10° NNE 04:48:33 27° ENE 04:52:20 10° SE visible
19 Mar 4.9 18:53:13 10° SSW 18:57:18 44° WNW 19:01:27 10° N visible
20 Mar 4.8 04:59:38 10° N 05:03:54 47° ENE 05:08:09 10° SSE visible
20 Mar 6.0 19:09:05 10° SW 19:12:40 25° WNW 19:16:17 10° NNW visible
21 Mar 3.7 05:14:43 10° N 05:19:09 84° E 05:23:35 10° S visible
21 Mar 6.8 19:25:33 10° WSW 19:28:06 15° WNW 19:30:41 10° NNW visible
22 Mar 6.9 03:53:48 10° NE 03:56:16 15° ENE 03:58:43 10° ESE visible
23 Mar 6.1 04:08:07 10° NNE 04:11:43 24° ENE 04:15:19 10° SE visible
24 Mar 5.0 04:22:53 10° N 04:27:05 40° ENE 04:31:16 10° SSE visible
25 Mar 3.9 04:37:55 10° N 04:42:21 72° E 04:46:47 10° SSE visible
25 Mar 6.7 18:48:17 10° WSW 18:51:13 18° WNW 18:54:11 10° NNW visible
26 Mar 6.9 03:17:24 10° NE 03:19:22 13° ENE 03:21:21 10° E visible
26 Mar 3.5 04:53:10 10° NNW 04:57:34 64° W 05:01:57 10° S visible
26 Mar 7.4 19:05:58 10° WNW 19:06:44 10° WNW 19:07:29 10° NW visible
